This is the latest recevied weather packets stored in our database for station/object KC1OEK-13. If no packets are shown the sender has not sent any weather packets the latest 1 day(s).
| Time | Temp. | Humidity | Pressure | Rain* | Wind** | Luminosity | Snow |
|---|---|---|---|---|---|---|---|
| 1777981041 | 8.89° C | 97% | 1012.8 hPa | 0 mm | 0 m/s | 101 W/m² | - |
| 1777980737 | 8.33° C | 98% | 1012.6 hPa | 0 mm | 0 m/s | 87 W/m² | - |
| 1777980434 | 7.78° C | 98% | 1012.7 hPa | 0 mm | 0 m/s | 63 W/m² | - |
| 1777980131 | 7.22° C | 99% | 1012.8 hPa | 0 mm | 0 m/s | 65 W/m² | - |
| 1777979826 | 7.22° C | 99% | 1012.8 hPa | 0 mm | 0 m/s | 50 W/m² | - |
| 1777979522 | 6.67° C | 99% | 1012.7 hPa | 0 mm | 0 m/s | 48 W/m² | - |
| 1777979218 | 6.67° C | 99% | 1012.7 hPa | 0 mm | 0.45 m/s, 87° | 45 W/m² | - |
| 1777978916 | 6.67° C | 99% | 1012.7 hPa | 0 mm | 0 m/s | 42 W/m² | - |
| 1777978612 | 6.11° C | 99% | 1012.8 hPa | 0 mm | 0.45 m/s, 333° | 40 W/m² | - |
| 1777978308 | 6.11° C | 99% | 1012.6 hPa | 0 mm | 0 m/s | 38 W/m² | - |
| 1777978005 | 6.11° C | 99% | 1012.6 hPa | 0 mm | 0 m/s | 35 W/m² | - |
| 1777977702 | 6.11° C | 99% | 1012.4 hPa | 0 mm | 0 m/s | 33 W/m² | - |
| 1777977398 | 5.56° C | 99% | 1012.5 hPa | 0 mm | 0 m/s | 32 W/m² | - |
| 1777977096 | 5.56° C | 99% | 1012.4 hPa | 0 mm | 0 m/s | 27 W/m² | - |
| 1777976793 | 5.56° C | 99% | 1012.2 hPa | 0 mm | 0 m/s | 21 W/m² | - |
| 1777976491 | 5.56° C | 99% | 1012.3 hPa | 0 mm | 0 m/s | 17 W/m² | - |
| 1777976190 | 5.56° C | 99% | 1012.1 hPa | 0 mm | 0 m/s | 14 W/m² | - |
| 1777975886 | 5.56° C | 99% | 1012.1 hPa | 0 mm | 0 m/s | 12 W/m² | - |
| 1777975582 | 5.56° C | 99% | 1012.2 hPa | 0 mm | 0 m/s | 9 W/m² | - |
| 1777975279 | 5.56° C | 99% | 1011.9 hPa | 0 mm | 0 m/s | 7 W/m² | - |
| 1777974975 | 5.56° C | 99% | 1011.9 hPa | 0 mm | 0.45 m/s, 25° | 6 W/m² | - |
| 1777974672 | 5.56° C | 99% | 1011.9 hPa | 0 mm | 0 m/s | 4 W/m² | - |
| 1777974368 | 5.56° C | 99% | 1012 hPa | 0 mm | 0 m/s | 3 W/m² | - |
| 1777974065 | 5.56° C | 99% | 1011.8 hPa | 0 mm | 0 m/s | 2 W/m² | - |
| 1777973761 | 5.56° C | 99% | 1011.9 hPa | 0 mm | 0 m/s | 1 W/m² | - |
* Rain latest hour (hover to see other rain measurements)
** Current wind speed in m/s (hover to see current wind gust speed)